RH
62 64 58 63 66 82 86 55 44 38 40 38 32 34 32 30 31 34 32 34 34 37 40 39 38 33 32 26 22 20 18 17 18 17 17 18 17 14 19 38 39 45 49 63 66
50 46 58 67 76 77 78 58 48 46 44 42 32 30 29 35 38 41 47 39 33 34 46 56 51 43 39 31 24 17 15 14 14 16 16 16 18 17 14 16 36 29 36 51 58
60 63 64 73 75 78 72 61 54 49 48 40 32 30 32 37 39 42 43 41 42 40 43 58 57 56 53 43 31 22 19 15 12 12 13 15 15 16 15 14 14 34 27 35 50
59 60 64 70 66 60 65 60 51 42 39 35 29 31 36 43 51 57 60 56 50 51 51 55 55 52 42 41 38 33 28 20 13 11 11 12 13 14 14 14 11 13 38 32 38
59 63 70 68 56 54 52 60 51 37 34 36 42 44 44 49 70 76 74 76 66 60 56 67 74 63 50 47 36 32 26 23 17 16 12 12 13 14 15 15 13 9 13 37 32
60 61 58 54 52 48 48 47 43 37 35 38 48 57 67 68 94 76 79 78 70 62 50 71 80 58 51 44 36 30 24 20 17 15 12 10 12 15 18 16 15 13 9 15 40
63 60 56 54 51 51 45 42 38 39 37 40 51 58 67 81 70 68 80 84 72 60 56 70 64 47 39 36 32 28 19 15 18 13 9 7 8 12 18 22 17 14 11 10 20
73 66 63 62 58 58 50 44 45 41 41 45 52 50 73 89 72 91 97 88 58 56 57 67 60 44 33 28 26 22 14 16 14 6 5 4 5 7 13 19 20 16 14 10 10
70 61 57 53 56 57 54 56 53 52 56 60 57 48 56 63 71 84 77 68 68 59 59 57 42 35 29 24 22 16 15 9 6 4 4 3 4 4 8 12 17 18 15 13 9
66 60 57 54 52 51 50 51 57 63 67 65 47 48 47 51 91 72 64 67 55 64 58 54 43 31 25 22 17 15 11 6 5 4 4 3 4 4 5 7 9 13 16 14 13
61 60 61 64 54 50 42 45 56 71 64 52 39 47 44 62 71 68 60 58 66 59 45 36 32 26 25 19 15 13 6 6 6 4 4 4 4 4 5 9 8 10 12 14 14
63 63 66 58 48 47 43 45 63 68 65 43 42 48 62 79 77 64 53 68 61 45 35 29 26 24 23 16 15 9 6 6 6 4 5 4 4 4 5 8 10 11 12 14 15
65 67 67 58 50 48 47 44 53 52 49 41 70 76 88 90 68 56 60 59 49 37 29 24 25 26 18 17 14 8 6 7 6 5 5 5 4 5 5 6 10 13 14 14 15
70 67 54 53 58 57 51 46 46 50 43 62 82 83 76 64 54 47 45 40 35 31 29 27 28 21 17 18 11 9 8 7 7 6 6 5 5 5 5 6 7 13 15 18 18
78 72 66 53 58 54 47 44 51 51 54 72 67 76 72 61 48 39 46 36 33 30 28 27 26 17 19 14 10 9 8 7 7 6 7 6 5 5 6 6 8 10 17 20 23
84 78 66 65 59 52 45 45 55 71 87 72 62 62 49 43 42 41 48 46 36 30 25 26 20 17 20 12 10 9 8 8 8 8 8 7 6 6 7 7 8 10 13 21 39
78 62 73 71 54 47 56 66 90 95 71 54 57 45 44 46 45 62 52 39 36 31 27 24 20 20 20 11 10 10 9 10 9 10 10 9 9 7 10 9 10 11 13 16 28
67 75 74 59 51 55 68 76 63 65 57 51 41 41 42 62 64 53 41 33 32 26 28 25 24 26 20 12 11 10 10 11 11 12 12 12 11 10 9 9 10 11 13 15 23
59 67 71 59 56 62 53 57 47 51 44 39 37 54 60 72 53 43 44 32 31 28 27 28 26 29 17 12 11 12 12 12 12 14 14 15 13 14 11 12 12 12 12 14 17
65 68 72 60 70 65 55 63 47 36 41 43 45 64 65 62 53 43 42 34 27 30 30 29 31 28 16 11 11 14 14 14 14 17 17 18 18 17 14 14 15 16 13 14 14
81 86 76 72 76 84 59 62 52 40 43 55 55 75 75 54 49 46 42 36 29 32 35 36 34 27 16 12 12 15 16 14 16 19 22 19 20 19 18 17 17 16 16 17 16
82 83 72 87 100 89 52 46 42 36 69 75 82 82 67 60 54 51 46 37 36 38 42 48 40 25 15 12 14 16 17 15 18 18 23 24 20 21 20 20 19 19 17 21 23
93 88 100 98 74 41 44 37 45 60 69 86 98 63 59 60 59 57 47 40 46 43 49 54 42 23 14 13 16 18 17 16 21 21 23 28 30 26 24 22 22 22 21 22 27
84 99 100 81 56 39 38 44 52 88 78 93 93 71 64 66 60 57 46 46 53 52 56 56 44 22 15 14 17 20 16 17 20 24 24 26 30 33 29 28 26 27 26 24 27
96 94 83 79 53 38 42 71 78 86 100 100 81 73 70 67 67 58 50 54 62 63 69 60 41 19 15 15 16 19 16 17 22 23 24 25 31 29 26 23 25 26 29 29 26
85 83 66 50 44 40 53 80 92 100 100 93 84 74 77 71 70 59 54 60 74 80 81 60 38 19 15 15 17 19 16 19 23 26 25 24 30 29 28 24 22 20 20 22 24
82 73 63 48 39 52 71 98 97 100 100 92 78 79 83 76 74 66 55 58 70 86 85 67 35 20 17 16 17 19 17 21 25 25 25 27 30 31 31 30 29 27 24 24 24
Wind_Speed
37 37 39 42 43 44 45 49 48 49 47 46 47 45 43 45 46 48 49 49 50 50 51 52 54 56 59 59 61 61 64 64 65 71 79 82 85 88 92 92 91 84 79 75 73
35 37 39 41 42 45 48 49 50 50 48 47 49 47 47 46 49 52 53 55 54 55 55 57 61 61 62 66 68 68 67 68 77 75 81 87 88 91 92 95 96 94 87 83 78
37 38 39 42 44 48 51 51 51 52 51 51 49 49 52 53 54 56 59 61 60 61 62 62 64 66 70 72 77 76 76 79 75 84 87 88 96 97 95 95 97 98 96 90 85
37 38 40 45 48 50 51 51 52 54 50 52 53 53 56 59 61 62 66 66 66 67 67 67 67 68 72 74 79 84 88 87 77 77 79 91 92 101 101 99 98 98 100 97 91
41 44 45 48 50 50 50 50 54 52 50 54 55 57 58 62 66 67 69 69 69 70 73 72 73 75 80 83 84 88 92 92 86 78 69 69 79 91 106 107 107 99 100 102 100
44 45 47 48 47 51 50 51 53 52 54 55 57 60 62 65 68 70 71 71 72 74 81 75 78 81 83 85 90 95 93 88 85 78 65 63 70 84 85 114 113 105 98 102 104
48 48 50 52 53 54 53 54 54 55 57 58 61 64 64 68 70 72 74 74 75 79 84 78 81 85 87 86 95 96 87 78 87 75 61 70 57 68 89 102 116 113 101 100 105
50 51 54 55 55 54 56 58 58 58 61 61 63 68 69 71 74 75 76 78 79 84 82 81 85 89 87 88 96 91 81 80 78 67 54 56 70 69 89 100 107 117 108 100 99
51 53 54 56 59 59 58 60 62 62 65 64 69 72 69 73 77 76 78 83 86 86 84 83 84 89 88 93 91 83 77 66 61 58 53 58 61 87 85 100 107 110 112 103 100
53 57 58 58 60 62 63 64 64 65 68 70 77 72 76 77 77 80 82 83 87 86 87 88 93 91 94 92 84 79 67 58 50 48 46 54 57 79 85 88 103 105 107 103 99
54 57 59 60 62 62 66 67 67 64 68 75 78 76 81 76 77 81 83 84 84 86 89 91 90 92 85 84 78 69 58 47 44 38 41 42 49 64 77 90 98 102 106 106 99
60 60 62 63 64 66 69 69 69 71 73 80 76 80 77 76 79 81 84 84 86 90 91 92 89 86 79 78 73 61 51 42 36 33 36 38 40 53 65 88 102 102 102 104 101
62 66 66 68 70 72 72 73 72 76 78 81 78 79 78 79 76 80 81 81 88 88 89 86 80 76 71 70 63 54 45 36 30 30 32 33 35 46 63 74 96 103 99 99 96
68 67 69 72 73 75 77 81 79 79 78 78 80 77 76 78 77 78 78 78 86 90 89 82 74 68 65 60 53 47 41 32 28 29 26 26 28 39 56 69 85 102 100 97 98
70 72 75 77 75 76 82 83 79 82 81 82 81 76 74 76 76 73 78 86 91 88 83 76 67 63 59 55 46 42 36 30 25 24 21 20 25 35 49 66 77 92 100 101 98
73 75 77 78 80 82 81 80 85 81 82 83 77 73 76 72 74 75 87 93 89 84 75 66 59 57 54 49 41 39 33 29 22 19 14 16 24 35 44 58 68 79 96 103 101
77 79 77 80 81 82 81 82 83 84 84 80 71 70 74 79 83 89 92 91 84 77 69 59 57 53 49 44 38 34 29 27 19 16 10 13 21 35 42 50 62 76 88 103 111
77 78 79 81 83 79 81 83 78 79 74 69 71 73 76 88 92 94 95 91 81 72 62 55 55 52 47 40 34 32 28 23 17 14 8 12 21 33 42 51 62 75 88 97 106
77 80 82 82 79 82 86 76 72 68 67 70 74 83 84 91 99 96 91 84 73 67 60 54 50 50 43 36 31 28 26 21 14 12 7 10 19 27 35 42 51 64 76 87 99
81 81 81 82 83 84 84 72 74 76 72 77 83 88 93 96 102 96 87 79 69 64 58 53 50 47 40 33 28 26 22 18 12 9 9 13 17 22 29 38 48 58 68 78 88
82 80 81 85 85 87 83 71 77 81 78 87 89 88 102 102 100 93 83 76 67 61 55 51 49 46 37 32 26 24 19 15 11 7 11 14 18 22 27 36 45 53 60 67 74
80 79 83 83 83 91 79 70 75 84 84 91 94 96 106 102 95 84 77 71 62 55 53 49 50 45 34 29 25 21 16 12 10 7 12 16 20 23 28 33 42 49 53 60 67
79 80 81 84 88 78 73 66 75 79 85 93 96 103 103 96 88 78 72 67 57 52 49 47 50 42 30 25 21 19 13 9 8 9 12 18 21 22 27 33 38 44 50 56 62
81 80 82 88 86 78 70 76 80 80 90 94 104 107 101 93 82 72 67 63 52 49 46 47 49 39 29 22 18 15 12 8 6 9 13 17 23 26 27 33 37 42 47 51 57
86 84 84 89 84 72 76 75 82 85 93 99 104 105 92 86 79 70 65 58 49 47 45 45 46 36 26 21 17 13 11 7 6 8 12 16 21 27 30 34 38 43 46 50 55
88 86 88 90 82 77 79 85 87 91 95 99 104 99 92 82 76 66 62 52 46 43 43 45 43 33 23 19 16 11 9 6 5 7 8 12 19 22 27 29 33 38 44 49 55
89 89 90 82 81 79 84 85 90 91 99 101 103 95 86 76 72 63 58 49 43 41 41 44 39 31 21 18 16 10 8 5 5 7 8 8 11 15 19 23 28 31 32 35 39
Wind_Direction
315 316 320 321 325 324 326 328 329 332 329 326 325 322 321 323 324 326 326 320 316 311 304 301 298 297 293 290 285 278 269 260 259 247 245 245 249 248 241 236 234 231 230 229 230
316 316 316 320 321 321 322 325 325 326 327 325 323 321 321 319 320 321 323 322 320 314 306 302 300 298 296 296 295 285 282 272 257 252 245 242 241 245 246 239 236 232 228 229 227
313 315 316 318 318 320 322 323 323 325 324 324 321 319 321 321 318 318 318 320 317 316 311 302 299 297 299 298 296 292 288 278 265 255 248 243 241 241 242 242 235 233 229 227 228
313 314 313 316 319 320 320 318 319 323 322 322 322 321 320 317 316 314 315 315 315 314 309 306 301 298 295 294 295 293 292 289 280 269 257 247 242 240 240 241 240 230 229 227 226
315 317 316 316 317 318 317 316 321 321 324 322 320 320 321 318 316 313 313 312 314 311 310 303 301 298 299 297 296 291 290 288 289 284 268 250 243 240 235 237 240 236 226 226 225
317 316 316 316 317 316 318 318 320 319 321 322 319 317 316 316 314 312 311 311 312 309 309 304 298 298 300 298 298 294 293 293 288 284 273 255 235 235 235 235 236 235 229 223 223
316 317 317 319 317 318 322 321 321 319 320 320 318 315 315 315 313 311 310 310 309 310 309 301 302 304 303 297 299 297 298 297 288 282 271 246 241 230 226 230 231 234 233 224 220
317 317 316 316 315 319 322 323 321 320 319 318 319 317 314 313 313 311 311 309 307 309 305 303 304 305 303 302 298 300 301 295 287 278 265 252 233 231 222 224 226 229 230 228 219
316 315 315 316 316 317 320 320 320 317 319 316 318 319 315 314 313 311 310 309 310 311 308 307 309 307 304 304 304 303 301 294 285 274 261 243 226 227 223 223 224 223 226 227 225
316 315 318 318 318 320 322 321 321 319 320 318 320 318 317 316 313 312 312 311 312 310 310 307 307 308 308 305 308 307 303 296 286 274 256 244 230 224 220 222 223 222 222 224 226
314 312 314 316 320 320 322 323 319 317 318 318 321 318 320 317 315 314 313 314 311 310 310 309 308 309 307 308 311 310 304 300 291 272 256 240 228 223 220 213 219 218 218 220 224
312 312 314 316 318 318 321 321 319 317 317 321 320 322 320 316 315 314 313 310 311 310 310 312 311 312 310 311 313 311 308 305 289 276 264 253 232 220 218 211 213 213 215 217 218
311 314 315 316 318 320 321 321 319 318 319 322 321 321 317 314 312 312 311 309 310 312 314 313 317 315 313 314 315 314 311 305 297 282 268 253 235 217 214 211 211 210 210 213 212
313 316 317 318 319 321 322 321 320 321 323 321 319 317 316 313 314 313 312 310 316 319 318 319 318 316 316 319 317 316 311 307 303 285 271 250 231 216 210 208 209 207 206 209 210
312 314 317 319 319 319 320 321 321 322 321 320 319 317 312 312 316 319 320 322 323 322 322 321 319 317 323 323 321 319 314 314 303 288 274 251 228 212 208 205 205 206 205 208 209
313 314 315 318 319 320 322 322 323 321 319 320 320 317 323 320 326 324 326 326 326 324 323 322 320 319 327 325 324 320 317 313 307 293 276 246 226 203 205 205 202 202 206 207 209
311 314 316 318 320 321 322 324 322 321 320 321 316 321 321 329 328 329 327 326 328 327 327 325 320 327 331 327 325 320 319 314 312 294 275 236 214 205 199 200 201 200 204 207 209
312 315 314 317 321 321 323 320 320 321 318 322 324 325 331 336 331 327 329 329 330 329 329 325 327 333 332 327 327 321 321 317 316 296 261 223 212 204 200 199 201 200 203 206 208
314 314 313 317 318 321 322 321 325 318 320 325 331 335 333 330 330 331 329 331 331 330 330 328 331 335 334 329 328 324 321 317 313 288 248 221 212 209 205 198 202 205 207 208 209
313 313 313 317 318 319 322 314 316 329 332 329 335 336 331 329 331 331 329 332 333 331 331 329 333 337 335 329 328 325 322 315 308 282 245 211 209 206 204 200 200 203 206 208 212
310 311 315 317 318 319 318 310 312 318 331 338 333 330 332 331 331 332 330 333 334 333 332 332 335 339 335 329 329 325 322 312 300 264 228 217 209 200 199 200 204 206 205 209 211
309 312 314 316 315 315 313 307 307 325 331 329 332 331 331 332 333 332 331 333 333 332 333 333 335 338 335 331 327 325 318 312 291 264 219 220 211 201 196 200 205 207 205 206 209
308 312 313 314 316 316 313 322 333 330 327 327 329 332 332 333 333 331 332 333 333 333 334 334 335 337 334 330 327 322 313 307 285 260 221 208 216 204 201 199 204 210 210 205 208
308 309 308 313 316 315 317 328 328 324 325 324 327 331 332 333 333 331 333 335 334 334 333 335 334 337 332 332 325 316 307 300 281 252 233 213 206 205 203 202 203 206 210 211 210
305 306 308 312 311 313 329 325 324 322 322 323 328 330 332 334 336 332 336 336 335 334 334 335 334 336 330 331 323 313 308 300 284 263 236 219 210 212 211 207 205 206 208 210 211
304 308 310 312 310 317 328 325 322 319 322 325 327 330 331 333 335 332 334 335 335 334 334 334 336 335 331 330 319 311 307 302 263 247 236 225 215 215 218 220 219 216 212 212 214
304 306 309 310 311 323 325 321 318 319 322 323 327 330 329 332 334 332 332 332 334 334 334 336 337 335 330 329 318 311 303 289 260 238 226 209 213 216 217 218 220 224 224 224 223